Time,TemperatureF,DewpointF,PressureIn,WindDirection,WindDirectionDegrees,WindSpeedMPH,WindSpeedGustMPH,Humidity,HourlyPrecipIn,Conditions,Clouds,dailyrainin,SoftwareType,DateUTC
2013-03-05 00:01:00,40.0,20.0,30.13,WSW,250,1.0,4.0,44,0.00,,,0.00,,2013-03-05 07:01:00,
2013-03-05 00:11:00,40.0,20.0,30.13,WSW,250,1.0,4.0,44,0.00,,,0.00,,2013-03-05 07:11:00,
2013-03-05 00:22:00,40.0,21.0,30.14,WNW,285,0.0,4.0,46,0.00,,,0.00,,2013-03-05 07:22:00,
2013-03-05 00:31:00,40.0,20.0,30.15,WSW,252,1.0,6.0,45,0.00,,,0.00,,2013-03-05 07:31:00,
2013-03-05 00:42:00,40.0,20.0,30.15,WSW,252,1.0,6.0,45,0.00,,,0.00,,2013-03-05 07:42:00,
2013-03-05 00:52:00,40.0,20.0,30.15,West,264,0.0,2.0,45,0.00,,,0.00,,2013-03-05 07:52:00,
2013-03-05 01:02:00,40.0,21.0,30.16,WSW,247,0.0,2.0,46,0.00,,,0.00,,2013-03-05 08:02:00,
2013-03-05 01:11:00,40.0,21.0,30.16,WSW,247,0.0,2.0,46,0.00,,,0.00,,2013-03-05 08:11:00,
2013-03-05 01:21:00,40.0,21.0,30.17,WNW,302,0.0,1.0,47,0.00,,,0.00,,2013-03-05 08:21:00,
2013-03-05 01:31:00,40.0,21.0,30.19,WNW,297,0.0,3.0,46,0.00,,,0.00,,2013-03-05 08:31:00,
2013-03-05 01:41:00,40.0,21.0,30.19,WNW,297,0.0,3.0,46,0.00,,,0.00,,2013-03-05 08:41:00,
2013-03-05 01:52:00,40.0,21.0,30.19,WNW,297,0.0,3.0,46,0.00,,,0.00,,2013-03-05 08:52:00,
2013-03-05 02:01:00,40.0,21.0,30.19,WNW,297,0.0,3.0,46,0.00,,,0.00,,2013-03-05 09:01:00,
2013-03-05 02:11:00,40.0,21.0,30.19,WNW,297,0.0,3.0,46,0.00,,,0.00,,2013-03-05 09:11:00,
2013-03-05 02:21:00,39.0,18.0,30.19,West,274,0.0,3.0,43,0.00,,,0.00,,2013-03-05 09:21:00,
2013-03-05 02:32:00,39.0,18.0,30.19,WNW,296,2.0,6.0,42,0.00,,,0.00,,2013-03-05 09:32:00,
2013-03-05 02:43:00,39.0,18.0,30.19,WNW,296,2.0,6.0,42,0.00,,,0.00,,2013-03-05 09:43:00,
2013-03-05 02:52:00,40.0,19.0,30.19,WNW,288,0.0,3.0,42,0.00,,,0.00,,2013-03-05 09:52:00,
2013-03-05 03:01:00,38.0,18.0,30.19,WNW,296,1.0,4.0,43,0.00,,,0.00,,2013-03-05 10:01:00,
2013-03-05 03:11:00,38.0,18.0,30.19,WNW,296,1.0,4.0,43,0.00,,,0.00,,2013-03-05 10:11:00,
2013-03-05 03:21:00,35.0,16.0,30.19,NW,307,0.0,3.0,45,0.00,,,0.00,,2013-03-05 10:21:00,
2013-03-05 03:32:00,35.0,17.0,30.19,WNW,295,0.0,2.0,47,0.00,,,0.00,,2013-03-05 10:32:00,
2013-03-05 03:42:00,35.0,17.0,30.19,WNW,295,0.0,2.0,47,0.00,,,0.00,,2013-03-05 10:42:00,
2013-03-05 03:52:00,37.0,17.0,30.19,WNW,290,0.0,3.0,44,0.00,,,0.00,,2013-03-05 10:52:00,
2013-03-05 04:01:00,35.0,16.0,30.21,NNW,346,0.0,2.0,46,0.00,,,0.00,,2013-03-05 11:01:00,
2013-03-05 04:11:00,35.0,16.0,30.21,NNW,346,0.0,2.0,46,0.00,,,0.00,,2013-03-05 11:11:00,
2013-03-05 04:22:00,33.0,15.0,30.21,NE,55,0.0,3.0,48,0.00,,,0.00,,2013-03-05 11:22:00,
2013-03-05 04:32:00,33.0,16.0,30.22,North,0,0.0,0.0,50,0.00,,,0.00,,2013-03-05 11:32:00,
2013-03-05 04:42:00,33.0,16.0,30.22,North,0,0.0,0.0,50,0.00,,,0.00,,2013-03-05 11:42:00,
2013-03-05 04:52:00,32.0,16.0,30.23,WNW,298,0.0,1.0,51,0.00,,,0.00,,2013-03-05 11:52:00,
2013-03-05 05:02:00,31.0,16.0,30.23,North,0,0.0,0.0,53,0.00,,,0.00,,2013-03-05 12:02:00,
2013-03-05 05:12:00,31.0,16.0,30.23,North,0,0.0,0.0,53,0.00,,,0.00,,2013-03-05 12:12:00,
2013-03-05 05:22:00,30.0,15.0,30.24,NE,41,0.0,1.0,52,0.00,,,0.00,,2013-03-05 12:22:00,
2013-03-05 05:32:00,30.0,15.0,30.23,North,0,0.0,0.0,54,0.00,,,0.00,,2013-03-05 12:32:00,
2013-03-05 05:42:00,30.0,15.0,30.23,North,0,0.0,0.0,54,0.00,,,0.00,,2013-03-05 12:42:00,
2013-03-05 05:52:00,30.0,15.0,30.24,NNE,12,0.0,1.0,54,0.00,,,0.00,,2013-03-05 12:52:00,
2013-03-05 06:02:00,30.0,15.0,30.26,North,0,0.0,0.0,54,0.00,,,0.00,,2013-03-05 13:02:00,
2013-03-05 06:11:00,30.0,15.0,30.26,North,0,0.0,0.0,54,0.00,,,0.00,,2013-03-05 13:11:00,
2013-03-05 06:21:00,30.0,16.0,30.25,North,0,0.0,0.0,56,0.00,,,0.00,,2013-03-05 13:21:00,
2013-03-05 06:32:00,30.0,16.0,30.26,North,0,0.0,0.0,56,0.00,,,0.00,,2013-03-05 13:32:00,
2013-03-05 06:42:00,30.0,16.0,30.26,North,0,0.0,0.0,56,0.00,,,0.00,,2013-03-05 13:42:00,
2013-03-05 06:52:00,29.0,16.0,30.27,NNE,30,0.0,2.0,59,0.00,,,0.00,,2013-03-05 13:52:00,
2013-03-05 07:02:00,29.0,18.0,30.28,NNE,15,0.0,1.0,63,0.00,,,0.00,,2013-03-05 14:02:00,
2013-03-05 07:11:00,29.0,18.0,30.28,NNE,15,0.0,1.0,63,0.00,,,0.00,,2013-03-05 14:11:00,
2013-03-05 07:21:00,29.0,19.0,30.29,North,9,0.0,2.0,66,0.00,,,0.00,,2013-03-05 14:21:00,
2013-03-05 07:32:00,29.0,19.0,30.29,NNE,30,0.0,2.0,66,0.00,,,0.00,,2013-03-05 14:32:00,
2013-03-05 07:42:00,29.0,19.0,30.29,NNE,30,0.0,2.0,66,0.00,,,0.00,,2013-03-05 14:42:00,
2013-03-05 07:52:00,30.0,20.0,30.30,NE,34,1.0,5.0,65,0.00,,,0.00,,2013-03-05 14:52:00,
2013-03-05 08:01:00,30.0,20.0,30.30,NE,34,1.0,5.0,65,0.00,,,0.00,,2013-03-05 15:01:00,
2013-03-05 08:11:00,30.0,20.0,30.30,NE,34,1.0,5.0,65,0.00,,,0.00,,2013-03-05 15:11:00,
2013-03-05 08:21:00,32.0,21.0,30.30,NNE,31,1.0,5.0,64,0.00,,,0.00,,2013-03-05 15:21:00,
2013-03-05 08:32:00,34.0,21.0,30.29,NE,35,2.0,7.0,59,0.00,,,0.00,,2013-03-05 15:32:00,
2013-03-05 08:42:00,34.0,21.0,30.29,NE,35,2.0,7.0,59,0.00,,,0.00,,2013-03-05 15:42:00,
2013-03-05 08:51:00,35.0,21.0,30.30,NE,38,3.0,10.0,56,0.00,,,0.00,,2013-03-05 15:51:00,
2013-03-05 09:01:00,36.0,21.0,30.30,NNE,28,3.0,9.0,55,0.00,,,0.00,,2013-03-05 16:01:00,
2013-03-05 09:11:00,36.0,21.0,30.30,NNE,28,3.0,9.0,55,0.00,,,0.00,,2013-03-05 16:11:00,
2013-03-05 09:21:00,37.0,21.0,30.32,NNE,17,2.0,9.0,52,0.00,,,0.00,,2013-03-05 16:21:00,
2013-03-05 09:32:00,38.0,22.0,30.32,NE,34,1.0,4.0,51,0.00,,,0.00,,2013-03-05 16:32:00,
2013-03-05 09:42:00,38.0,22.0,30.32,NE,34,1.0,4.0,51,0.00,,,0.00,,2013-03-05 16:42:00,
2013-03-05 09:51:00,39.0,22.0,30.32,NNE,17,1.0,3.0,50,0.00,,,0.00,,2013-03-05 16:51:00,
2013-03-05 10:01:00,39.0,22.0,30.32,NNE,17,1.0,3.0,50,0.00,,,0.00,,2013-03-05 17:01:00,
2013-03-05 10:11:00,39.0,22.0,30.32,NNE,17,1.0,3.0,50,0.00,,,0.00,,2013-03-05 17:11:00,
2013-03-05 10:21:00,42.0,23.0,30.32,ENE,63,2.0,6.0,46,0.00,,,0.00,,2013-03-05 17:21:00,
2013-03-05 10:32:00,44.0,23.0,30.31,ENE,66,1.0,5.0,43,0.00,,,0.00,,2013-03-05 17:32:00,
2013-03-05 10:42:00,44.0,23.0,30.31,ENE,66,1.0,5.0,43,0.00,,,0.00,,2013-03-05 17:42:00,
2013-03-05 10:52:00,46.0,24.0,30.31,East,93,1.0,5.0,42,0.00,,,0.00,,2013-03-05 17:52:00,
2013-03-05 11:02:00,48.0,22.0,30.30,ENE,72,1.0,5.0,36,0.00,,,0.00,,2013-03-05 18:02:00,
2013-03-05 11:11:00,48.0,22.0,30.30,ENE,72,1.0,5.0,36,0.00,,,0.00,,2013-03-05 18:11:00,
2013-03-05 11:22:00,48.0,24.0,30.30,East,81,2.0,7.0,38,0.00,,,0.00,,2013-03-05 18:22:00,
2013-03-05 11:32:00,50.0,23.0,30.29,East,86,1.0,6.0,34,0.00,,,0.00,,2013-03-05 18:32:00,
2013-03-05 11:42:00,50.0,23.0,30.29,East,86,1.0,6.0,34,0.00,,,0.00,,2013-03-05 18:42:00,
2013-03-05 11:52:00,50.0,22.0,30.29,NE,56,1.0,6.0,33,0.00,,,0.00,,2013-03-05 18:52:00,
2013-03-05 12:01:00,51.0,23.0,30.28,East,89,2.0,6.0,33,0.00,,,0.00,,2013-03-05 19:01:00,
2013-03-05 12:11:00,51.0,23.0,30.28,East,89,2.0,6.0,33,0.00,,,0.00,,2013-03-05 19:11:00,
2013-03-05 12:21:00,52.0,22.0,30.29,East,89,1.0,5.0,30,0.00,,,0.00,,2013-03-05 19:21:00,
2013-03-05 12:32:00,52.0,21.0,30.27,South,182,0.0,2.0,29,0.00,,,0.00,,2013-03-05 19:32:00,
2013-03-05 12:42:00,52.0,21.0,30.27,South,182,0.0,2.0,29,0.00,,,0.00,,2013-03-05 19:42:00,
2013-03-05 12:51:00,52.0,23.0,30.27,NNW,341,0.0,2.0,32,0.00,,,0.00,,2013-03-05 19:51:00,
2013-03-05 13:01:00,54.0,22.0,30.27,East,97,1.0,4.0,28,0.00,,,0.00,,2013-03-05 20:01:00,
2013-03-05 13:11:00,56.0,22.0,30.26,NNE,27,1.0,4.0,26,0.00,,,0.00,,2013-03-05 20:11:00,
2013-03-05 13:21:00,56.0,22.0,30.26,NNE,27,1.0,4.0,26,0.00,,,0.00,,2013-03-05 20:21:00,
2013-03-05 13:32:00,57.0,20.0,30.25,SSE,158,1.0,6.0,23,0.00,,,0.00,,2013-03-05 20:32:00,
2013-03-05 13:42:00,57.0,20.0,30.25,SSE,158,1.0,6.0,23,0.00,,,0.00,,2013-03-05 20:42:00,
2013-03-05 13:52:00,56.0,21.0,30.24,SSE,166,2.0,7.0,25,0.00,,,0.00,,2013-03-05 20:52:00,
2013-03-05 14:02:00,58.0,17.0,30.24,South,189,2.0,7.0,20,0.00,,,0.00,,2013-03-05 21:02:00,
2013-03-05 14:11:00,58.0,17.0,30.24,South,189,2.0,7.0,20,0.00,,,0.00,,2013-03-05 21:11:00,
2013-03-05 14:21:00,58.0,18.0,30.23,South,184,2.0,6.0,21,0.00,,,0.00,,2013-03-05 21:21:00,
2013-03-05 14:32:00,59.0,18.0,30.22,SE,131,2.0,7.0,20,0.00,,,0.00,,2013-03-05 21:32:00,
2013-03-05 14:42:00,59.0,18.0,30.22,SE,131,2.0,7.0,20,0.00,,,0.00,,2013-03-05 21:42:00,
2013-03-05 14:52:00,59.0,18.0,30.22,SSW,198,3.0,10.0,20,0.00,,,0.00,,2013-03-05 21:52:00,
2013-03-05 15:01:00,58.0,15.0,30.21,South,169,2.0,8.0,18,0.00,,,0.00,,2013-03-05 22:01:00,
2013-03-05 15:11:00,58.0,15.0,30.21,South,169,2.0,8.0,18,0.00,,,0.00,,2013-03-05 22:11:00,
2013-03-05 15:22:00,59.0,11.0,30.21,South,176,3.0,9.0,15,0.00,,,0.00,,2013-03-05 22:22:00,
2013-03-05 15:32:00,58.0,13.0,30.21,South,179,2.0,9.0,17,0.00,,,0.00,,2013-03-05 22:32:00,
2013-03-05 15:42:00,58.0,13.0,30.21,South,179,2.0,9.0,17,0.00,,,0.00,,2013-03-05 22:42:00,
2013-03-05 15:52:00,58.0,6.0,30.20,SSW,194,3.0,7.0,12,0.00,,,0.00,,2013-03-05 22:52:00,
2013-03-05 16:01:00,59.0,8.0,30.20,South,184,2.0,7.0,13,0.00,,,0.00,,2013-03-05 23:01:00,
2013-03-05 16:11:00,59.0,8.0,30.20,South,184,2.0,7.0,13,0.00,,,0.00,,2013-03-05 23:11:00,
2013-03-05 16:21:00,59.0,8.0,30.19,South,178,3.0,8.0,13,0.00,,,0.00,,2013-03-05 23:21:00,
2013-03-05 16:32:00,59.0,6.0,30.19,South,183,2.0,7.0,12,0.00,,,0.00,,2013-03-05 23:32:00,
2013-03-05 16:42:00,59.0,6.0,30.19,South,183,2.0,7.0,12,0.00,,,0.00,,2013-03-05 23:42:00,
2013-03-05 16:53:00,59.0,6.0,30.19,South,179,3.0,8.0,12,0.00,,,0.00,,2013-03-05 23:53:00,
2013-03-05 17:01:00,59.0,3.0,30.18,South,183,2.0,7.0,10,0.00,,,0.00,,2013-03-06 00:01:00,
2013-03-05 17:11:00,59.0,3.0,30.18,South,183,2.0,7.0,10,0.00,,,0.00,,2013-03-06 00:11:00,
2013-03-05 17:21:00,59.0,3.0,30.18,South,183,2.0,7.0,10,0.00,,,0.00,,2013-03-06 00:21:00,
2013-03-05 17:32:00,57.0,3.0,30.18,SSW,192,2.0,7.0,11,0.00,,,0.00,,2013-03-06 00:32:00,
2013-03-05 17:42:00,57.0,3.0,30.18,SSW,192,2.0,7.0,11,0.00,,,0.00,,2013-03-06 00:42:00,
2013-03-05 17:52:00,56.0,0.0,30.18,SSW,198,2.0,7.0,10,0.00,,,0.00,,2013-03-06 00:52:00,
2013-03-05 18:02:00,55.0,1.0,30.18,SSW,192,1.0,4.0,11,0.00,,,0.00,,2013-03-06 01:02:00,
2013-03-05 18:11:00,55.0,1.0,30.18,SSW,192,1.0,4.0,11,0.00,,,0.00,,2013-03-06 01:11:00,
2013-03-05 18:21:00,55.0,1.0,30.18,SSW,192,1.0,4.0,11,0.00,,,0.00,,2013-03-06 01:21:00,
2013-03-05 18:32:00,53.0,5.0,30.19,SSW,205,2.0,4.0,14,0.00,,,0.00,,2013-03-06 01:32:00,
2013-03-05 18:42:00,53.0,5.0,30.19,SSW,205,2.0,4.0,14,0.00,,,0.00,,2013-03-06 01:42:00,
2013-03-05 18:52:00,53.0,5.0,30.19,SSW,204,2.0,5.0,14,0.00,,,0.00,,2013-03-06 01:52:00,
2013-03-05 19:01:00,52.0,7.0,30.18,SSW,206,0.0,3.0,16,0.00,,,0.00,,2013-03-06 02:01:00,
2013-03-05 19:11:00,52.0,7.0,30.18,SSW,206,0.0,3.0,16,0.00,,,0.00,,2013-03-06 02:11:00,
2013-03-05 19:22:00,52.0,10.0,30.19,SSW,212,0.0,2.0,18,0.00,,,0.00,,2013-03-06 02:22:00,
2013-03-05 19:32:00,51.0,11.0,30.19,SW,214,0.0,2.0,20,0.00,,,0.00,,2013-03-06 02:32:00,
2013-03-05 19:42:00,51.0,11.0,30.19,SW,214,0.0,2.0,20,0.00,,,0.00,,2013-03-06 02:42:00,
2013-03-05 19:52:00,51.0,11.0,30.19,SW,214,0.0,2.0,20,0.00,,,0.00,,2013-03-06 02:52:00,
2013-03-05 20:02:00,51.0,15.0,30.20,SSW,208,1.0,3.0,23,0.00,,,0.00,,2013-03-06 03:02:00,
2013-03-05 20:11:00,51.0,15.0,30.20,SSW,208,1.0,3.0,23,0.00,,,0.00,,2013-03-06 03:11:00,
2013-03-05 20:22:00,51.0,15.0,30.20,SSW,205,1.0,4.0,23,0.00,,,0.00,,2013-03-06 03:22:00,
2013-03-05 20:32:00,50.0,14.0,30.20,SSW,206,2.0,4.0,23,0.00,,,0.00,,2013-03-06 03:32:00,
2013-03-05 20:42:00,50.0,14.0,30.20,SSW,206,2.0,4.0,23,0.00,,,0.00,,2013-03-06 03:42:00,
2013-03-05 20:52:00,50.0,16.0,30.20,SSW,209,0.0,3.0,25,0.00,,,0.00,,2013-03-06 03:52:00,
2013-03-05 21:02:00,50.0,16.0,30.21,SSW,203,1.0,3.0,25,0.00,,,0.00,,2013-03-06 04:02:00,
2013-03-05 21:11:00,50.0,16.0,30.21,SSW,203,1.0,3.0,25,0.00,,,0.00,,2013-03-06 04:11:00,
2013-03-05 21:21:00,48.0,15.0,30.21,SSW,198,0.0,1.0,26,0.00,,,0.00,,2013-03-06 04:21:00,
2013-03-05 21:32:00,48.0,16.0,30.22,SSW,203,0.0,1.0,27,0.00,,,0.00,,2013-03-06 04:32:00,
2013-03-05 21:42:00,48.0,16.0,30.22,SSW,203,0.0,1.0,27,0.00,,,0.00,,2013-03-06 04:42:00,
2013-03-05 21:52:00,47.0,15.0,30.22,SSW,205,0.0,1.0,27,0.00,,,0.00,,2013-03-06 04:52:00,
2013-03-05 22:02:00,46.0,16.0,30.22,SSW,205,0.0,1.0,29,0.00,,,0.00,,2013-03-06 05:02:00,
2013-03-05 22:11:00,46.0,16.0,30.22,SSW,205,0.0,1.0,29,0.00,,,0.00,,2013-03-06 05:11:00,
2013-03-05 22:22:00,48.0,18.0,30.22,SSW,204,2.0,5.0,30,0.00,,,0.00,,2013-03-06 05:22:00,
2013-03-05 22:32:00,48.0,18.0,30.22,SSW,204,2.0,5.0,30,0.00,,,0.00,,2013-03-06 05:32:00,
2013-03-05 22:42:00,48.0,18.0,30.22,SSW,204,2.0,5.0,30,0.00,,,0.00,,2013-03-06 05:42:00,
2013-03-05 22:52:00,48.0,18.0,30.22,SSW,204,2.0,5.0,30,0.00,,,0.00,,2013-03-06 05:52:00,
2013-03-05 23:02:00,45.0,18.0,30.22,SSW,205,0.0,3.0,33,0.00,,,0.00,,2013-03-06 06:02:00,
2013-03-05 23:11:00,45.0,18.0,30.22,SSW,205,0.0,3.0,33,0.00,,,0.00,,2013-03-06 06:11:00,
2013-03-05 23:22:00,45.0,18.0,30.22,SSW,205,0.0,3.0,33,0.00,,,0.00,,2013-03-06 06:22:00,
2013-03-05 23:32:00,46.0,19.0,30.22,SSW,205,0.0,2.0,33,0.00,,,0.00,,2013-03-06 06:32:00,
2013-03-05 23:42:00,46.0,19.0,30.22,SSW,205,0.0,2.0,33,0.00,,,0.00,,2013-03-06 06:42:00,
2013-03-05 23:52:00,46.0,19.0,30.21,SSW,205,0.0,3.0,33,0.00,,,0.00,,2013-03-06 06:52:00,